• In Uzbekistan
  • List of Countries
  • For 7 days
  • Water Temperature
  • Weather Map
  • Weather Widgets
  • user-avatar
    Login

    Hourly Weather Naryn

    Today, 16 September, Monday

    Time Temperature Precipitation Wind Pressure Humidity
    00:00 +8°C° 0.3 mm 1 mps 569 mmHg 83%
    01:00 +7°C° 0.3 mm 1 mps 569 mmHg 87%
    02:00 +6°C° 0.3 mm 1 mps 569 mmHg 91%
    03:00 +6°C° 0.2 mm 1 mps 568 mmHg 91%
    04:00 +6°C° 0.2 mm 1 mps 568 mmHg 91%
    05:00 +5°C° 0 mm 1 mps 568 mmHg 91%
    06:00 +6°C° 0.1 mm 1 mps 569 mmHg 86%
    07:00 +7°C° 0.1 mm 1 mps 569 mmHg 81%
    08:00 +8°C° 0.1 mm 1 mps 570 mmHg 76%
    09:00 +8°C° 0.3 mm 2 mps 570 mmHg 67%
    10:00 +9°C° 0.3 mm 2 mps 571 mmHg 58%
    11:00 +10°C° 0 mm 3 mps 571 mmHg 47%
    12:00 +11°C° 0.1 mm 4 mps 571 mmHg 44%
    13:00 +11°C° 0.1 mm 4 mps 571 mmHg 42%
    14:00 +12°C° 0.1 mm 4 mps 571 mmHg 39%
    15:00 +12°C° 0.1 mm 4 mps 571 mmHg 38%
    16:00 +11°C° 0.1 mm 4 mps 571 mmHg 38%
    17:00 +11°C° 0.1 mm 3 mps 571 mmHg 37%
    18:00 +10°C° 0 mm 3 mps 571 mmHg 40%
    19:00 +8°C° 0 mm 2 mps 570 mmHg 44%
    20:00 +8°C° 0 mm 1 mps 570 mmHg 47%
    21:00 +8°C° 0 mm 1 mps 570 mmHg 48%
    22:00 +7°C° 0 mm 1 mps 570 mmHg 49%
    23:00 +7°C° 0 mm 1 mps 569 mmHg 50%

    Tomorrow, 17 September, Tuesday

    Time Temperature Precipitation Wind Pressure Humidity
    00:00 +7°C° 0 mm 1 mps 569 mmHg 52%
    01:00 +7°C° 0 mm 1 mps 569 mmHg 54%
    02:00 +7°C° 0 mm 1 mps 570 mmHg 55%
    03:00 +6°C° 0 mm 1 mps 570 mmHg 60%
    04:00 +6°C° 0 mm 1 mps 570 mmHg 64%
    05:00 +5°C° 0 mm 1 mps 570 mmHg 69%
    06:00 +6°C° 0 mm 1 mps 570 mmHg 66%
    07:00 +7°C° 0 mm 1 mps 571 mmHg 64%
    08:00 +8°C° 0 mm 1 mps 572 mmHg 62%
    09:00 +8°C° 0.1 mm 2 mps 572 mmHg 55%
    10:00 +9°C° 0.1 mm 2 mps 573 mmHg 49%
    11:00 +10°C° 0.1 mm 2 mps 573 mmHg 43%
    12:00 +12°C° 0 mm 2 mps 574 mmHg 39%
    13:00 +12°C° 0 mm 3 mps 574 mmHg 35%
    14:00 +12°C° 0 mm 3 mps 574 mmHg 32%
    15:00 +13°C° 0 mm 2 mps 574 mmHg 30%
    16:00 +13°C° 0 mm 2 mps 574 mmHg 29%
    17:00 +13°C° 0 mm 2 mps 574 mmHg 28%
    18:00 +11°C° 0 mm 1 mps 574 mmHg 32%
    19:00 +10°C° 0 mm 1 mps 573 mmHg 37%
    20:00 +8°C° 0 mm 1 mps 573 mmHg 41%
    21:00 +8°C° 0 mm 1 mps 573 mmHg 41%
    22:00 +7°C° 0 mm 1 mps 572 mmHg 41%
    23:00 +7°C° 0 mm 1 mps 572 mmHg 41%

    Day after tomorrow, 18 September, Wednesday

    Time Temperature Precipitation Wind Pressure Humidity
    00:00 +6°C° 0 mm 2 mps 572 mmHg 42%
    01:00 +6°C° 0 mm 2 mps 572 mmHg 42%
    02:00 +5°C° 0 mm 2 mps 571 mmHg 42%
    03:00 +5°C° 0 mm 2 mps 571 mmHg 43%
    04:00 +5°C° 0 mm 2 mps 571 mmHg 44%
    05:00 +5°C° 0 mm 2 mps 571 mmHg 45%
    06:00 +7°C° 0 mm 2 mps 572 mmHg 43%
    07:00 +8°C° 0 mm 2 mps 573 mmHg 40%
    08:00 +10°C° 0 mm 2 mps 574 mmHg 37%
    09:00 +13°C° 0 mm 2 mps 575 mmHg 35%
    10:00 +15°C° 0 mm 2 mps 575 mmHg 33%
    11:00 +16°C° 0 mm 2 mps 576 mmHg 30%
    12:00 +17°C° 0 mm 2 mps 576 mmHg 29%
    13:00 +18°C° 0 mm 2 mps 576 mmHg 28%
    14:00 +19°C° 0 mm 2 mps 576 mmHg 27%
    15:00 +19°C° 0 mm 2 mps 576 mmHg 30%
    16:00 +18°C° 0 mm 2 mps 576 mmHg 33%
    17:00 +18°C° 0 mm 2 mps 576 mmHg 35%
    18:00 +16°C° 0 mm 2 mps 575 mmHg 40%
    19:00 +13°C° 0 mm 3 mps 574 mmHg 44%
    20:00 +11°C° 0 mm 3 mps 573 mmHg 48%
    21:00 +10°C° 0 mm 3 mps 573 mmHg 50%
    22:00 +10°C° 0 mm 3 mps 573 mmHg 52%
    23:00 +9°C° 0 mm 3 mps 572 mmHg 54%

    19 September, Thursday

    Time Temperature Precipitation Wind Pressure Humidity
    00:00 +9°C° 0 mm 3 mps 572 mmHg 54%
    01:00 +9°C° 0 mm 2 mps 572 mmHg 54%
    02:00 +9°C° 0 mm 2 mps 572 mmHg 54%
    03:00 +8°C° 0 mm 2 mps 572 mmHg 55%
    04:00 +8°C° 0 mm 2 mps 572 mmHg 56%
    05:00 +9°C° 0 mm 1 mps 572 mmHg 57%
    06:00 +10°C° 0 mm 1 mps 572 mmHg 51%
    07:00 +12°C° 0 mm 1 mps 573 mmHg 46%
    08:00 +13°C° 0 mm 1 mps 574 mmHg 41%
    09:00 +15°C° 0 mm 1 mps 574 mmHg 37%
    10:00 +16°C° 0 mm 2 mps 575 mmHg 32%
    11:00 +18°C° 0 mm 2 mps 576 mmHg 28%
    12:00 +18°C° 0 mm 3 mps 576 mmHg 25%
    13:00 +19°C° 0 mm 4 mps 576 mmHg 23%
    14:00 +20°C° 0 mm 5 mps 576 mmHg 21%
    15:00 +19°C° 0 mm 4 mps 576 mmHg 22%
    16:00 +19°C° 0 mm 3 mps 576 mmHg 23%
    17:00 +18°C° 0 mm 3 mps 575 mmHg 24%
    18:00 +16°C° 0 mm 2 mps 575 mmHg 27%
    19:00 +14°C° 0 mm 2 mps 574 mmHg 31%
    20:00 +12°C° 0 mm 1 mps 573 mmHg 35%
    21:00 +11°C° 0 mm 1 mps 573 mmHg 36%
    22:00 +11°C° 0 mm 1 mps 573 mmHg 37%
    23:00 +10°C° 0 mm 1 mps 572 mmHg 39%

    20 September, Friday

    Time Temperature Precipitation Wind Pressure Humidity
    00:00 +10°C° 0 mm 1 mps 572 mmHg 40%
    01:00 +9°C° 0 mm 1 mps 571 mmHg 41%
    02:00 +9°C° 0 mm 1 mps 571 mmHg 42%
    03:00 +9°C° 0 mm 1 mps 571 mmHg 42%
    04:00 +8°C° 0 mm 1 mps 571 mmHg 43%
    05:00 +8°C° 0 mm 1 mps 571 mmHg 43%
    06:00 +10°C° 0 mm 1 mps 572 mmHg 39%
    07:00 +12°C° 0 mm 1 mps 573 mmHg 34%
    08:00 +14°C° 0 mm 1 mps 574 mmHg 29%
    09:00 +16°C° 0 mm 1 mps 575 mmHg 27%
    10:00 +18°C° 0 mm 1 mps 575 mmHg 24%
    11:00 +19°C° 0 mm 1 mps 576 mmHg 21%
    12:00 +20°C° 0 mm 1 mps 575 mmHg 20%
    13:00 +21°C° 0 mm 1 mps 575 mmHg 19%
    14:00 +20°C° 0 mm 2 mps 575 mmHg 18%
    15:00 +20°C° 0 mm 2 mps 575 mmHg 20%
    16:00 +19°C° 0 mm 2 mps 575 mmHg 21%
    17:00 +19°C° 0 mm 2 mps 575 mmHg 23%
    18:00 +18°C° 0 mm 1 mps 574 mmHg 26%
    19:00 +15°C° 0 mm 1 mps 574 mmHg 29%
    20:00 +13°C° 0 mm 1 mps 573 mmHg 32%
    21:00 +12°C° 0 mm 1 mps 573 mmHg 34%
    22:00 +12°C° 0 mm 1 mps 573 mmHg 36%
    23:00 +11°C° 0 mm 1 mps 572 mmHg 37%

    21 September, Saturday

    Time Temperature Precipitation Wind Pressure Humidity
    00:00 +11°C° 0 mm 1 mps 572 mmHg 40%
    01:00 +10°C° 0 mm 1 mps 572 mmHg 43%
    02:00 +10°C° 0 mm 1 mps 571 mmHg 46%
    03:00 +9°C° 0 mm 2 mps 571 mmHg 48%
    04:00 +8°C° 0 mm 2 mps 571 mmHg 51%
    05:00 +8°C° 0 mm 2 mps 571 mmHg 53%
    06:00 +10°C° 0 mm 2 mps 572 mmHg 48%
    07:00 +13°C° 0 mm 2 mps 573 mmHg 43%
    08:00 +15°C° 0 mm 2 mps 574 mmHg 38%
    09:00 +16°C° 0 mm 2 mps 575 mmHg 35%
    10:00 +18°C° 0 mm 2 mps 575 mmHg 31%
    11:00 +20°C° 0 mm 1 mps 576 mmHg 27%
    12:00 +20°C° 0 mm 2 mps 576 mmHg 24%
    13:00 +21°C° 0 mm 2 mps 576 mmHg 22%
    14:00 +23°C° 0 mm 2 mps 576 mmHg 19%
    15:00 +21°C° 0 mm 2 mps 575 mmHg 22%
    16:00 +21°C° 0 mm 2 mps 575 mmHg 24%
    17:00 +21°C° 0 mm 1 mps 575 mmHg 27%
    18:00 +18°C° 0 mm 2 mps 574 mmHg 30%
    19:00 +16°C° 0 mm 2 mps 574 mmHg 32%
    20:00 +13°C° 0 mm 3 mps 573 mmHg 35%
    21:00 +13°C° 0 mm 3 mps 573 mmHg 37%
    22:00 +12°C° 0 mm 3 mps 572 mmHg 40%
    23:00 +11°C° 0 mm 3 mps 572 mmHg 42%
    Show more